| time (UTC) | temp C | wind direction | speed KPH | gust KPH | rain 1hr cm | rain 24hr cm | rain mn cm | humidity % | barometer mb |
| 20260504151006 | 18 | 215 | 9.7 | 22.5 | 0.00 | 0.00 | 0.00 | 32 | 1011.8 |
| 20260504150504 | 18 | 237 | 1.6 | 19.3 | 0.00 | 0.00 | 0.00 | 35 | 1011.7 |
| 20260504141009 | 16 | 215 | 9.7 | 22.5 | 0.00 | 0.00 | 0.00 | 37 | 1012.7 |
| 20260504140508 | 16 | 197 | 6.4 | 17.7 | 0.00 | 0.00 | 0.00 | 37 | 1012.7 |
| 20260504130510 | 13 | 269 | 1.6 | 14.5 | 0.00 | 0.00 | 0.00 | 43 | 1013.1 |
| 20260504110507 | 10 | 250 | 3.2 | 8.0 | 0.00 | 0.00 | 0.00 | 52 | 1013.2 |
| 20260504100506 | 7 | 226 | 1.6 | 4.8 | 0.00 | 0.00 | 0.00 | 58 | 1012.9 |
| 20260504082003 | 8 | 202 | 1.6 | 8.0 | 0.00 | 0.00 | 0.00 | 56 | 1012.6 |
| 20260504081508 | 8 | 202 | 1.6 | 6.4 | 0.00 | 0.00 | 0.00 | 56 | 1012.6 |
| 20260504081004 | 8 | 215 | 1.6 | 6.4 | 0.00 | 0.00 | 0.00 | 55 | 1012.6 |
| 20260504080503 | 8 | 197 | 1.6 | 6.4 | 0.00 | 0.00 | 0.00 | 54 | 1012.5 |
| 20260504050507 | 8 | 300 | 0.0 | 3.2 | 0.00 | 0.00 | 0.00 | 52 | 1011.9 |
| 20260504045507 | 9 | 263 | 1.6 | 3.2 | 0.00 | 0.00 | 0.00 | 52 | 1012.0 |
| 20260504045009 | 9 | 236 | 1.6 | 4.8 | 0.00 | 0.00 | 0.00 | 51 | 1012.0 |
| 20260504044536 | 9 | 206 | 1.6 | 4.8 | 0.00 | 0.00 | 0.00 | 51 | 1012.0 |
| 20260504044006 | 9 | 260 | 1.6 | 4.8 | 0.00 | 0.00 | 0.00 | 50 | 1011.9 |
| 20260504043507 | 9 | 271 | 1.6 | 3.2 | 0.00 | 0.00 | 0.00 | 50 | 1011.9 |
| 20260504043019 | 9 | 278 | 1.6 | 3.2 | 0.00 | 0.00 | 0.00 | 49 | 1011.9 |
| 20260504042508 | 10 | 227 | 0.0 | 1.6 | 0.00 | 0.00 | 0.00 | 49 | 1011.8 |
| 20260504042009 | 10 | 227 | 0.0 | 3.2 | 0.00 | 0.00 | 0.00 | 50 | 1011.8 |
| 20260504041517 | 10 | 269 | 0.0 | 3.2 | 0.00 | 0.00 | 0.00 | 49 | 1011.7 |
| 20260504041007 | 10 | 269 | 1.6 | 1.6 | 0.00 | 0.00 | 0.00 | 48 | 1011.7 |
| 20260504040510 | 10 | 281 | 1.6 | 4.8 | 0.00 | 0.00 | 0.00 | 47 | 1011.6 |
| 20260504040022 | 10 | 286 | 0.0 | 4.8 | 0.00 | 0.00 | 0.00 | 47 | 1011.6 |
| 20260504035511 | 10 | 283 | 1.6 | 3.2 | 0.00 | 0.00 | 0.00 | 47 | 1011.6 |
| 20260504035010 | 10 | 294 | 1.6 | 3.2 | 0.00 | 0.00 | 0.00 | 46 | 1011.6 |
| 20260504034533 | 10 | 285 | 0.0 | 3.2 | 0.00 | 0.00 | 0.00 | 46 | 1011.6 |
| 20260504034006 | 10 | 290 | 1.6 | 3.2 | 0.00 | 0.00 | 0.00 | 46 | 1011.7 |
| 20260504033513 | 10 | 240 | 0.0 | 3.2 | 0.00 | 0.00 | 0.00 | 47 | 1011.7 |
| 20260504033035 | 10 | 269 | 0.0 | 1.6 | 0.00 | 0.00 | 0.00 | 46 | 1011.7 |
| 20260504032507 | 10 | 269 | 0.0 | 1.6 | 0.00 | 0.00 | 0.00 | 1011.7 | |
| 20260504032009 | 10 | 269 | 1.6 | 1.6 | 0.00 | 0.00 | 0.00 | 1011.7 | |
| 20260504031516 | 10 | 273 | 1.6 | 1.6 | 0.00 | 0.00 | 0.00 | 44 | 1011.6 |
| 20260504031008 | 10 | 263 | 1.6 | 3.2 | 0.00 | 0.00 | 0.00 | 44 | 1011.6 |
| 20260504030510 | 10 | 263 | 1.6 | 3.2 | 0.00 | 0.00 | 0.00 | 44 | 1011.7 |
| 20260504030020 | 10 | 272 | 1.6 | 1.6 | 0.00 | 0.00 | 0.00 | 44 | 1011.6 |
| 20260504025508 | 10 | 284 | 1.6 | 1.6 | 0.00 | 0.00 | 0.00 | 46 | 1011.6 |
| 20260504025009 | 10 | 284 | 1.6 | 1.6 | 0.00 | 0.00 | 0.00 | 45 | 1011.6 |
| 20260504024525 | 10 | 284 | 1.6 | 1.6 | 0.00 | 0.00 | 0.00 | 46 | 1011.6 |
| 20260504024012 | 11 | 284 | 1.6 | 1.6 | 0.00 | 0.00 | 0.00 | 46 | 1011.7 |
| 20260504023512 | 10 | 285 | 1.6 | 3.2 | 0.00 | 0.00 | 0.00 | 44 | 1011.7 |
| 20260504023026 | 10 | 286 | 1.6 | 1.6 | 0.00 | 0.00 | 0.00 | 45 | 1011.7 |
| 20260504022511 | 10 | 288 | 1.6 | 1.6 | 0.00 | 0.00 | 0.00 | 46 | 1011.7 |
| 20260504022010 | 10 | 291 | 1.6 | 1.6 | 0.00 | 0.00 | 0.00 | 47 | 1011.7 |
| 20260504021518 | 10 | 291 | 1.6 | 1.6 | 0.00 | 0.00 | 0.00 | 47 | 1011.7 |
| 20260504021009 | 10 | 294 | 1.6 | 1.6 | 0.00 | 0.00 | 0.00 | 48 | 1011.7 |
| 20260504020507 | 10 | 294 | 0.0 | 1.6 | 0.00 | 0.00 | 0.00 | 49 | 1011.7 |
| 20260504020020 | 10 | 294 | 0.0 | 1.6 | 0.00 | 0.00 | 0.00 | 49 | 1011.6 |
| 20260504015508 | 10 | 294 | 0.0 | 3.2 | 0.00 | 0.00 | 0.00 | 48 | 1011.6 |
| 20260504015009 | 11 | 294 | 0.0 | 3.2 | 0.00 | 0.00 | 0.00 | 47 | 1011.6 |
| 20260504014523 | 11 | 294 | 0.0 | 3.2 | 0.00 | 0.00 | 0.00 | 44 | 1011.5 |
| 20260504014010 | 11 | 298 | 0.0 | 3.2 | 0.00 | 0.00 | 0.00 | 42 | 1011.5 |
| 20260504013509 | 11 | 298 | 0.0 | 3.2 | 0.00 | 0.00 | 0.00 | 43 | 1011.5 |
| 20260504013033 | 11 | 298 | 1.6 | 3.2 | 0.00 | 0.00 | 0.00 | 41 | 1011.5 |
| 20260504012508 | 12 | 298 | 0.0 | 3.2 | 0.00 | 0.00 | 0.00 | 41 | 1011.5 |
| 20260504012010 | 12 | 298 | 0.0 | 3.2 | 0.00 | 0.00 | 0.00 | 40 | 1011.5 |
| 20260504011526 | 12 | 292 | 1.6 | 4.8 | 0.00 | 0.00 | 0.00 | 39 | 1011.4 |
| 20260504011008 | 12 | 188 | 0.0 | 4.8 | 0.00 | 0.00 | 0.00 | 39 | 1011.4 |
| 20260504010518 | 12 | 257 | 1.6 | 4.8 | 0.00 | 0.00 | 0.00 | 39 | 1011.3 |
| 20260504010017 | 12 | 196 | 1.6 | 4.8 | 0.00 | 0.00 | 0.00 | 36 | 1011.3 |
| 20260504005508 | 12 | 217 | 1.6 | 6.4 | 0.00 | 0.00 | 0.00 | 37 | 1011.2 |
| 20260504005009 | 12 | 276 | 0.0 | 6.4 | 0.00 | 0.00 | 0.00 | 37 | 1011.2 |
| 20260504004520 | 12 | 352 | 0.0 | 3.2 | 0.00 | 0.00 | 0.00 | 37 | 1011.2 |
| 20260504004010 | 13 | 243 | 0.0 | 3.2 | 0.00 | 0.00 | 0.00 | 35 | 1011.2 |
| 20260504003510 | 13 | 249 | 0.0 | 3.2 | 0.00 | 0.00 | 0.00 | 35 | 1011.1 |
| 20260504003025 | 13 | 288 | 0.0 | 3.2 | 0.00 | 0.00 | 0.00 | 34 | 1011.0 |
| 20260504002509 | 13 | 219 | 0.0 | 3.2 | 0.00 | 0.00 | 0.00 | 34 | 1010.9 |
| 20260504002010 | 13 | 319 | 0.0 | 3.2 | 0.00 | 0.00 | 0.00 | 35 | 1010.8 |
| 20260504001526 | 13 | 263 | 0.0 | 3.2 | 0.00 | 0.00 | 0.00 | 34 | 1010.7 |
| 20260504001010 | 13 | 198 | 0.0 | 3.2 | 0.00 | 0.00 | 0.00 | 35 | 1010.6 |
| 20260504000508 | 13 | 177 | 0.0 | 3.2 | 0.00 | 0.00 | 0.00 | 34 | 1010.5 |
| 20260504000028 | 13 | 183 | 0.0 | 3.2 | 0.00 | 0.00 | 0.00 | 33 | 1010.4 |
| 20260503235507 | 13 | 231 | 0.0 | 3.2 | 0.00 | 0.00 | 0.00 | 31 | 1010.4 |
| 20260503235008 | 14 | 304 | 1.6 | 4.8 | 0.00 | 0.00 | 0.00 | 31 | 1010.3 |
| 20260503234520 | 14 | 292 | 1.6 | 9.7 | 0.00 | 0.00 | 0.00 | 31 | 1010.2 |
| 20260503234016 | 14 | 335 | 4.8 | 16.1 | 0.00 | 0.00 | 0.00 | 30 | 1010.2 |
| 20260503233508 | 14 | 296 | 1.6 | 16.1 | 0.00 | 0.00 | 0.00 | 30 | 1010.2 |
| 20260503233024 | 14 | 309 | 4.8 | 11.3 | 0.00 | 0.00 | 0.00 | 30 | 1010.1 |
| 20260503232510 | 14 | 283 | 3.2 | 11.3 | 0.00 | 0.00 | 0.00 | 30 | 1010.2 |
| 20260503232016 | 14 | 313 | 3.2 | 11.3 | 0.00 | 0.00 | 0.00 | 29 | 1010.1 |
| 20260503231525 | 14 | 327 | 1.6 | 11.3 | 0.00 | 0.00 | 0.00 | 29 | 1010.1 |
| 20260503231012 | 15 | 288 | 4.8 | 14.5 | 0.00 | 0.00 | 0.00 | 29 | 1010.0 |
| 20260503230509 | 15 | 323 | 4.8 | 14.5 | 0.00 | 0.00 | 0.00 | 29 | 1009.9 |
| 20260503230028 | 15 | 326 | 1.6 | 14.5 | 0.00 | 0.00 | 0.00 | 29 | 1009.9 |
| 20260503225507 | 15 | 332 | 6.4 | 20.9 | 0.00 | 0.00 | 0.00 | 28 | 1009.8 |
| 20260503225009 | 15 | 292 | 6.4 | 20.9 | 0.00 | 0.00 | 0.00 | 28 | 1009.8 |
| 20260503224527 | 15 | 304 | 6.4 | 20.9 | 0.00 | 0.00 | 0.00 | 28 | 1009.7 |
| 20260503224009 | 15 | 272 | 1.6 | 16.1 | 0.00 | 0.00 | 0.00 | 28 | 1009.7 |
| 20260503223510 | 15 | 337 | 6.4 | 20.9 | 0.00 | 0.00 | 0.00 | 27 | 1009.7 |
| 20260503223023 | 15 | 306 | 8.0 | 29.0 | 0.00 | 0.00 | 0.00 | 27 | 1009.7 |
| 20260503222510 | 15 | 311 | 8.0 | 29.0 | 0.00 | 0.00 | 0.00 | 27 | 1009.8 |
| 20260503222010 | 15 | 12 | 6.4 | 20.9 | 0.00 | 0.00 | 0.00 | 27 | 1009.7 |
| 20260503221532 | 15 | 298 | 11.3 | 22.5 | 0.00 | 0.00 | 0.00 | 26 | 1009.8 |
| 20260503221011 | 15 | 294 | 6.4 | 22.5 | 0.00 | 0.00 | 0.00 | 26 | 1009.8 |
| 20260503220511 | 15 | 327 | 8.0 | 16.1 | 0.00 | 0.00 | 0.00 | 26 | 1009.7 |
| 20260503220026 | 15 | 306 | 1.6 | 16.1 | 0.00 | 0.00 | 0.00 | 26 | 1009.7 |
| 20260503215510 | 15 | 238 | 3.2 | 17.7 | 0.00 | 0.00 | 0.00 | 26 | 1009.7 |
| 20260503215011 | 15 | 313 | 6.4 | 17.7 | 0.00 | 0.00 | 0.00 | 26 | 1009.7 |
| 20260503214527 | 15 | 301 | 4.8 | 20.9 | 0.00 | 0.00 | 0.00 | 26 | 1009.8 |
| 20260503214017 | 15 | 352 | 8.0 | 20.9 | 0.00 | 0.00 | 0.00 | 26 | 1009.8 |
| 20260503213514 | 15 | 310 | 4.8 | 25.7 | 0.00 | 0.00 | 0.00 | 26 | 1009.7 |
| 20260503213029 | 15 | 301 | 9.7 | 27.4 | 0.00 | 0.00 | 0.00 | 26 | 1009.7 |
| 20260503212509 | 15 | 286 | 14.5 | 27.4 | 0.00 | 0.00 | 0.00 | 26 | 1009.7 |
| 20260503212012 | 15 | 330 | 11.3 | 22.5 | 0.00 | 0.00 | 0.00 | 26 | 1009.6 |
| 20260503211525 | 15 | 352 | 9.7 | 24.1 | 0.00 | 0.00 | 0.00 | 26 | 1009.7 |
| 20260503211007 | 15 | 180 | 11.3 | 24.1 | 0.00 | 0.00 | 0.00 | 26 | 1009.7 |
| 20260503210504 | 15 | 256 | 9.7 | 25.7 | 0.00 | 0.00 | 0.00 | 26 | 1009.7 |
| 20260503210011 | 14 | 328 | 11.3 | 25.7 | 0.00 | 0.00 | 0.00 | 26 | 1009.6 |
| 20260503205507 | 14 | 9 | 11.3 | 24.1 | 0.00 | 0.00 | 0.00 | 27 | 1009.6 |
| 20260503205008 | 15 | 287 | 12.9 | 24.1 | 0.00 | 0.00 | 0.00 | 27 | 1009.6 |
| 20260503204511 | 15 | 246 | 11.3 | 24.1 | 0.00 | 0.00 | 0.00 | 26 | 1009.6 |
| 20260503204008 | 15 | 13 | 11.3 | 24.1 | 0.00 | 0.00 | 0.00 | 27 | 1009.5 |
| 20260503203507 | 14 | 328 | 8.0 | 22.5 | 0.00 | 0.00 | 0.00 | 27 | 1009.5 |
| 20260503203020 | 15 | 337 | 8.0 | 27.4 | 0.00 | 0.00 | 0.00 | 27 | 1009.6 |
| 20260503202514 | 15 | 271 | 11.3 | 27.4 | 0.00 | 0.00 | 0.00 | 27 | 1009.5 |
| 20260503202010 | 14 | 263 | 4.8 | 20.9 | 0.00 | 0.00 | 0.00 | 28 | 1009.5 |
| 20260503201528 | 14 | 270 | 8.0 | 17.7 | 0.00 | 0.00 | 0.00 | 28 | 1009.5 |
| 20260503201011 | 14 | 69 | 9.7 | 16.1 | 0.00 | 0.00 | 0.00 | 28 | 1009.7 |
| 20260503200510 | 13 | 332 | 4.8 | 22.5 | 0.00 | 0.00 | 0.00 | 29 | 1009.5 |
| 20260503200010 | 13 | 343 | 11.3 | 27.4 | 0.00 | 0.00 | 0.00 | 29 | 1009.8 |
| 20260503195503 | 13 | 314 | 9.7 | 27.4 | 0.00 | 0.00 | 0.00 | 29 | 1009.9 |
| 20260503195006 | 13 | 17 | 17.7 | 27.4 | 0.00 | 0.00 | 0.00 | 28 | 1009.8 |
| 20260503194510 | 13 | 341 | 4.8 | 20.9 | 0.00 | 0.00 | 0.00 | 29 | 1010.0 |
| 20260503194007 | 13 | 314 | 9.7 | 24.1 | 0.00 | 0.00 | 0.00 | 29 | 1010.0 |
| 20260503193506 | 13 | 335 | 9.7 | 27.4 | 0.00 | 0.00 | 0.00 | 29 | 1010.1 |
| 20260503193016 | 13 | 324 | 12.9 | 27.4 | 0.00 | 0.00 | 0.00 | 30 | 1010.2 |
| 20260503192507 | 13 | 321 | 6.4 | 22.5 | 0.00 | 0.00 | 0.00 | 30 | 1010.1 |
| 20260503192011 | 13 | 31 | 4.8 | 22.5 | 0.00 | 0.00 | 0.00 | 31 | 1010.1 |
| 20260503191522 | 13 | 323 | 8.0 | 24.1 | 0.00 | 0.00 | 0.00 | 31 | 1010.2 |
| 20260503191007 | 13 | 92 | 9.7 | 24.1 | 0.00 | 0.00 | 0.00 | 31 | 1010.3 |
| 20260503190507 | 13 | 263 | 9.7 | 22.5 | 0.00 | 0.00 | 0.00 | 31 | 1010.2 |
| 20260503190024 | 13 | 17 | 11.3 | 20.9 | 0.00 | 0.00 | 0.00 | 32 | 1010.2 |
| 20260503185510 | 13 | 25 | 11.3 | 19.3 | 0.00 | 0.00 | 0.00 | 31 | 1010.3 |
| 20260503185011 | 13 | 277 | 3.2 | 27.4 | 0.00 | 0.00 | 0.00 | 33 | 1010.3 |
| 20260503184515 | 12 | 331 | 4.8 | 27.4 | 0.00 | 0.00 | 0.00 | 33 | 1010.4 |
| 20260503184004 | 12 | 291 | 8.0 | 24.1 | 0.00 | 0.00 | 0.00 | 33 | 1010.6 |
| 20260503183512 | 12 | 221 | 6.4 | 24.1 | 0.00 | 0.00 | 0.00 | 33 | 1010.4 |
| 20260503183024 | 12 | 19 | 11.3 | 24.1 | 0.00 | 0.00 | 0.00 | 34 | 1010.4 |
| 20260503182507 | 12 | 324 | 11.3 | 24.1 | 0.00 | 0.00 | 0.00 | 34 | 1010.6 |
| 20260503182009 | 12 | 263 | 6.4 | 29.0 | 0.00 | 0.00 | 0.00 | 34 | 1010.6 |
| 20260503181528 | 12 | 329 | 6.4 | 29.0 | 0.00 | 0.00 | 0.00 | 35 | 1010.6 |
| 20260503181008 | 12 | 300 | 8.0 | 20.9 | 0.00 | 0.00 | 0.00 | 36 | 1010.6 |
| 20260503180510 | 12 | 307 | 8.0 | 25.7 | 0.00 | 0.00 | 0.00 | 36 | 1010.6 |
| 20260503180024 | 11 | 315 | 11.3 | 25.7 | 0.00 | 0.00 | 0.00 | 37 | 1010.5 |
| 20260503175510 | 11 | 223 | 8.0 | 20.9 | 0.00 | 0.00 | 0.00 | 36 | 1010.7 |
| 20260503175010 | 11 | 44 | 8.0 | 27.4 | 0.00 | 0.00 | 0.00 | 36 | 1010.7 |
| 20260503174523 | 11 | 57 | 9.7 | 27.4 | 0.00 | 0.00 | 0.00 | 35 | 1010.6 |
| 20260503174008 | 11 | 267 | 8.0 | 24.1 | 0.00 | 0.00 | 0.00 | 36 | 1010.7 |
| 20260503173507 | 12 | 19 | 12.9 | 24.1 | 0.00 | 0.00 | 0.00 | 35 | 1010.7 |
| 20260503173035 | 12 | 5 | 11.3 | 27.4 | 0.00 | 0.00 | 0.00 | 37 | 1010.7 |
| 20260503172505 | 11 | 98 | 3.2 | 27.4 | 0.00 | 0.00 | 0.00 | 38 | 1010.9 |
| 20260503172007 | 11 | 306 | 9.7 | 25.7 | 0.00 | 0.00 | 0.00 | 35 | 1010.9 |
| 20260503171517 | 11 | 331 | 11.3 | 25.7 | 0.00 | 0.00 | 0.00 | 36 | 1010.9 |
| 20260503171007 | 11 | 315 | 9.7 | 24.1 | 0.00 | 0.00 | 0.00 | 37 | 1011.0 |
| 20260503170507 | 11 | 5 | 6.4 | 24.1 | 0.00 | 0.00 | 0.00 | 38 | 1011.0 |